[[{"header":{"parameterUnit":"m.s-1","parameterCategory":1,"la1":30.2991,"la2":30.254,"lo1":-89.0895,"lo2":-89.0444,"dy":0.0017,"dx":0.0017,"nx":28,"ny":28,"refTime":"2024-04-26T09:00:00:Z","depth":0,"parameterNumber":2,"parameterNumberName":"U-component_of_WINDS"},"data":[0,0,0,0,0,0,0,0,0,0,0,0,0,0,0,0,0,0,0,0,0,0,0,0,0,0,0,0,0,0,0,0,0,0,0,0,0,0,0,0,0,0,0,0,0,0,0,0,0,0,0,0,0,0,0,0,0,0,-7.2545,-7.2546,0,-7.2646,-7.2647,-7.2648,-7.263,-7.2628,-7.2627,-7.2625,-7.2723,-7.2727,-7.2731,0,0,0,0,0,0,0,0,0,0,0,0,0,-7.2335,-7.2339,-7.2545,-7.2546,-7.2547,-7.2646,-7.2647,-7.2648,-7.263,-7.2628,-7.2626,-7.2624,-7.2722,-7.2727,-7.2732,0,0,0,0,0,0,0,0,0,0,0,0,0,-7.243,-7.234,-7.2545,-7.255,-7.2552,-7.2645,-7.2647,-7.2649,-7.2631,-7.2628,-7.2626,-7.2623,-7.272,-7.2726,-7.2733,-7.2825,0,0,-7.2752,-7.2755,0,0,0,0,0,0,0,0,-7.2424,-7.2437,-7.2548,-7.255,-7.2552,-7.2623,-7.2609,-7.2708,-7.2631,-7.2601,-7.2625,-7.2622,-7.2692,-7.27,-7.2725,-7.2829,-7.2834,-7.2753,-7.2756,-7.2759,-7.2761,0,0,0,0,0,0,0,-7.2418,-7.2433,-7.2585,-7.255,-7.2552,-7.2547,-7.2558,-7.2627,-7.2659,-7.2603,-7.2602,-7.2615,-7.2692,-7.2719,-7.2727,-7.2835,-7.2752,-7.2758,-7.2762,-7.2765,-7.3022,-7.3025,0,0,0,0,0,0,-7.241,-7.2427,-7.2581,-7.2588,-7.2481,-7.2553,-7.2565,-7.2603,-7.2659,-7.2665,-7.2617,-7.2613,-7.2709,-7.2719,-7.273,-7.2841,-7.2759,-7.2765,-7.2769,-7.3019,-7.3023,-7.3026,0,0,0,0,0,0,-7.2405,-7.2424,-7.2577,-7.2507,-7.2527,-7.256,-7.2602,-7.2606,-7.2632,-7.2669,-7.2674,-7.2638,-7.2707,-7.2721,-7.2802,-7.2844,-7.2768,-7.2774,-7.3016,-7.302,-7.3024,-7.3065,0,0,0,0,0,0,-7.2399,-7.2422,-7.2458,-7.2508,-7.253,-7.2648,-7.2605,-7.261,-7.2644,-7.2641,-7.269,-7.2696,-7.2706,-7.2793,-7.2808,-7.2852,-7.2779,-7.3012,-7.3018,-7.3023,-7.306,-7.307,-7.3079,0,0,0,0,0,-7.2392,-7.2464,-7.246,-7.2478,-7.2576,-7.2651,-7.2663,-7.2674,-7.2648,-7.2683,-7.2708,-7.2694,-7.2839,-7.2801,-7.2819,-7.2865,-7.3009,-7.3016,-7.3022,-7.3055,-7.3068,-7.3079,0,0,0,0,0,0,-7.2414,-7.247,-7.2466,-7.2557,-7.26,-7.2647,-7.2692,-7.2688,-7.2737,-7.2731,-7.2743,-7.2754,-7.2836,-7.2859,-7.2816,-7.2958,-7.292,-7.293,-7.2939,-7.2951,-7.2961,-7.2951,-7.2784,0,0,0,0,0,-7.2431,-7.2488,-7.2533,-7.2609,-7.2631,-7.2659,-7.2691,-7.2697,-7.2741,-7.2758,-7.2788,-7.283,-7.2885,-7.292,-7.2972,-7.3065,-7.3075,-7.3106,-7.3115,-7.3123,-7.3131,-7.3181,-7.3195,-7.3048,-7.3048,-7.3048,0,0,-7.2463,-7.2501,-7.2535,-7.2615,-7.2648,-7.2706,-7.2673,-7.2735,-7.2778,-7.2767,-7.2845,-7.2869,-7.2917,-7.3004,-7.3044,-7.3025,-7.3175,-7.3132,-7.3138,-7.3141,-7.319,-7.3203,-7.3216,-7.3053,-7.3052,-7.3051,0,0,-7.2551,-7.2587,-7.2653,-7.2689,-7.2741,-7.276,-7.2776,-7.2826,-7.2842,-7.2922,-7.2915,-7.2966,-7.306,-7.3095,-7.3124,-7.3231,-7.322,-7.3248,-7.3296,-7.3346,-7.3357,-7.3367,-7.3403,-7.3416,-7.3257,-7.3257,-7.3257,0,-7.2583,-7.2672,-7.2687,-7.2752,-7.2786,-7.2783,-7.285,-7.2883,-7.2949,-7.2973,-7.2953,-7.3073,-7.3104,-7.3199,-7.3226,-7.3251,-7.3269,-7.324,-7.3355,-7.3365,-7.3375,-7.3409,-7.3423,-7.3259,-7.3259,-7.3259,-7.3259,0,-7.2709,-7.277,-7.2818,-7.2884,-7.2925,-7.299,-7.3016,-7.3055,-7.3059,-7.308,-7.3161,-7.3201,-7.3261,-7.3286,-7.3289,-7.3382,-7.3369,-7.3352,-7.3313,-7.3391,-7.3424,-7.3437,-7.3263,-7.3262,-7.3262,-7.3261,0,0,-7.2808,-7.2886,-7.2903,-7.2933,-7.2993,-7.304,-7.3107,-7.3168,-7.3201,-7.3249,-7.3303,-7.3386,-7.3371,-7.3405,-7.3413,-7.3457,-7.3538,-7.3435,-7.3436,-7.345,-7.3641,-7.365,-7.3665,-7.3534,-7.3536,-7.3538,-7.3636,0,-7.2899,-7.3016,-7.3034,-7.3137,-7.3194,-7.3194,-7.3251,-7.3294,-7.3317,-7.3368,-7.3393,-7.345,-7.3428,-7.3448,-7.3492,-7.3518,-7.3575,-7.3512,-7.3582,-7.3584,-7.3565,-7.3683,-7.3692,-7.3782,-7.3649,-7.3651,-7.3653,0,-7.302,-7.3073,-7.3181,-7.3236,-7.326,-7.3311,-7.337,-7.342,-7.3469,-7.3483,-7.3523,-7.3527,-7.3595,-7.3558,-7.3651,-7.3608,-7.3639,-7.3657,-7.3661,-7.3663,-7.362,-7.3686,-7.3811,-7.3823,-7.3673,-7.3672,-7.367,0,-7.3078,-7.3177,-7.3255,-7.3282,-7.3347,-7.3383,-7.3412,-7.3459,-7.3496,-7.3548,-7.3571,-7.363,-7.3661,-7.3707,-7.3726,-7.3698,-7.3819,-7.3783,-7.383,-7.3829,-7.385,-7.3848,-7.3979,-7.3877,-7.3877,-7.3877,-7.3876,0,-7.3175,-7.3241,-7.3282,-7.3329,-7.3404,-7.3425,-7.3498,-7.3526,-7.3568,-7.3621,-7.3626,-7.3675,-7.37,-7.3753,-7.3769,-7.3843,-7.3858,-7.387,-7.3872,-7.3867,-7.3865,-7.3883,-7.3876,-7.388,-7.388,-7.3879,-7.3878,0,-7.325,-7.3281,-7.3365,-7.3423,-7.3439,-7.349,-7.3539,-7.3585,-7.361,-7.3676,-7.3693,-7.3731,-7.3794,-7.382,-7.3896,-7.3907,-7.3992,-7.3992,-7.3975,-7.3975,-7.4019,-7.4013,-7.4163,-7.4183,-7.4071,-7.4073,-7.4073,0,-7.3308,-7.3359,-7.3423,-7.346,-7.349,-7.3549,-7.3587,-7.3612,-7.3651,-7.3714,-7.3752,-7.3816,-7.3867,-7.3968,-7.4001,-7.406,-7.4059,-7.4108,-7.4067,-7.4061,-7.4056,-7.4052,-7.4056,-7.4113,-7.4115,-7.4116,-7.4116,0,-7.3407,-7.3421,-7.3476,-7.3538,-7.3585,-7.3634,-7.3682,-7.3712,-7.3744,-7.3788,-7.3854,-7.3894,-7.3975,-7.4037,-7.4099,-7.4128,-7.4127,-7.413,-7.4143,-7.4136,-7.4123,-7.4128,-7.3991,-7.4125,-7.4124,-7.4123,-7.4123,-7.4123,-7.3473,-7.3519,-7.3572,-7.3634,-7.3674,-7.372,-7.3766,-7.3798,-7.3854,-7.3921,-7.3933,-7.4003,-7.4053,-7.4137,-7.4169,-7.4223,-7.421,-7.423,-7.4235,-7.4238,-7.424,-7.4119,-7.4235,-7.4235,-7.4235,-7.4235,-7.4234,0,-7.357,-7.3605,-7.3663,-7.3732,-7.3781,-7.3781,-7.3835,-7.3875,-7.3937,-7.3985,-7.4037,-7.4113,-7.4175,-7.4215,-7.4278,-7.4313,-7.4315,-7.4329,-7.4324,-7.433,-7.4249,-7.423,-7.4327,-7.4326,-7.4326,-7.4326,-7.4326,-7.4326,-7.3626,-7.3703,-7.3723,-7.3821,-7.3855,-7.3924,-7.3955,-7.3998,-7.4036,-7.4121,-7.4173,-7.4201,-7.4246,-7.4312,-7.4369,-7.438,-7.4401,-7.4415,-7.4424,-7.4346,-7.4336,-7.4327,-7.4309,-7.442,-7.4421,-7.4501,-7.4501,-7.4502]},{"header":{"parameterUnit":"m.s-1","parameterCategory":1,"la1":30.2991,"la2":30.254,"lo1":-89.0895,"lo2":-89.0444,"dy":0.0017,"dx":0.0017,"nx":28,"ny":28,"refTime":"2024-04-26T09:00:00:Z","depth":0,"parameterNumber":3,"parameterNumberName":"V-component_of_WINDS"},"data":[0,0,0,0,0,0,0,0,0,0,0,0,0,0,0,0,0,0,0,0,0,0,0,0,0,0,0,0,0,0,0,0,0,0,0,0,0,0,0,0,0,0,0,0,0,0,0,0,0,0,0,0,0,0,0,0,0,0,4.3603,4.3603,0,4.3633,4.3633,4.3634,4.3672,4.3672,4.3673,4.3673,4.3697,4.3697,4.3697,0,0,0,0,0,0,0,0,0,0,0,0,0,4.3574,4.3574,4.3603,4.3603,4.3604,4.3633,4.3633,4.3634,4.3671,4.3672,4.3673,4.3674,4.3697,4.3697,4.3697,0,0,0,0,0,0,0,0,0,0,0,0,0,4.3593,4.3575,4.3603,4.3626,4.3629,4.3633,4.3633,4.3634,4.3671,4.3672,4.3673,4.3674,4.3697,4.3697,4.3697,4.3679,0,0,4.3697,4.3697,0,0,0,0,0,0,0,0,4.3592,4.3594,4.3622,4.3625,4.3627,4.365,4.3632,4.3649,4.3671,4.3655,4.3673,4.3675,4.368,4.3682,4.3685,4.368,4.3681,4.3697,4.3697,4.3697,4.3697,0,0,0,0,0,0,0,4.3591,4.3593,4.3615,4.3623,4.3626,4.3634,4.3638,4.3635,4.3661,4.3656,4.3659,4.3663,4.3682,4.3685,4.3686,4.3681,4.3697,4.3697,4.3697,4.3697,4.3665,4.3664,0,0,0,0,0,0,4.3587,4.3592,4.3614,4.3616,4.3612,4.3634,4.3638,4.3641,4.3662,4.3666,4.3662,4.3664,4.3684,4.3686,4.3687,4.3668,4.3697,4.3697,4.3698,4.3666,4.3665,4.3664,0,0,0,0,0,0,4.3586,4.3588,4.3612,4.3605,4.3608,4.3633,4.3637,4.3641,4.3645,4.3666,4.367,4.3661,4.3685,4.3687,4.3682,4.367,4.3697,4.3698,4.3667,4.3666,4.3664,4.363,0,0,0,0,0,0,4.3585,4.3588,4.3582,4.3604,4.3609,4.3608,4.3636,4.3641,4.3646,4.3649,4.3666,4.367,4.3686,4.3681,4.3682,4.367,4.3698,4.3668,4.3666,4.3665,4.3632,4.3628,4.3624,0,0,0,0,0,4.3584,4.3569,4.3581,4.3584,4.3602,4.3607,4.3609,4.3631,4.3645,4.3638,4.3653,4.3669,4.3671,4.368,4.3681,4.3669,4.3669,4.3667,4.3665,4.3634,4.3629,4.3624,0,0,0,0,0,0,4.3541,4.3572,4.3586,4.3578,4.359,4.3614,4.3606,4.3623,4.363,4.3632,4.3656,4.366,4.3652,4.366,4.367,4.3654,4.3673,4.3671,4.3649,4.3644,4.364,4.3638,4.3698,0,0,0,0,0,4.3531,4.3535,4.3561,4.3551,4.3557,4.3581,4.3583,4.3599,4.3612,4.3616,4.3629,4.3639,4.3642,4.3643,4.3647,4.3634,4.3639,4.3627,4.3622,4.3619,4.3616,4.3612,4.3607,4.3657,4.3657,4.3657,0,0,4.3509,4.3527,4.3527,4.3543,4.3554,4.3556,4.3584,4.3584,4.3586,4.3615,4.3613,4.3623,4.3635,4.3627,4.3624,4.3633,4.3604,4.3616,4.3613,4.3613,4.361,4.3605,4.3601,4.3656,4.3656,4.3656,0,0,4.3472,4.3485,4.348,4.3492,4.351,4.3526,4.3525,4.3547,4.3556,4.3554,4.3577,4.3578,4.3583,4.3591,4.3596,4.3566,4.3582,4.3566,4.3543,4.3539,4.3535,4.3532,4.3522,4.3518,4.3564,4.3564,4.3564,0,4.3442,4.3448,4.3475,4.3475,4.3482,4.3512,4.3507,4.3516,4.3532,4.3536,4.3547,4.3556,4.3566,4.3561,4.3555,4.3557,4.3556,4.3564,4.3534,4.3531,4.3528,4.3519,4.3515,4.3562,4.3562,4.3563,4.3563,0,4.3412,4.3416,4.3409,4.3429,4.3435,4.3432,4.3457,4.346,4.3476,4.3491,4.3489,4.3503,4.3512,4.3512,4.3526,4.3509,4.3515,4.353,4.3549,4.3521,4.3513,4.351,4.3559,4.356,4.3561,4.3561,0,0,4.3346,4.3383,4.338,4.3391,4.3414,4.3417,4.3416,4.3427,4.3429,4.344,4.344,4.3445,4.346,4.3466,4.3481,4.3477,4.3455,4.3493,4.3494,4.3486,4.3439,4.3428,4.3424,4.3466,4.3465,4.3465,4.3438,0,4.3313,4.3316,4.3341,4.3336,4.334,4.3371,4.337,4.3383,4.3398,4.3403,4.3418,4.3422,4.3441,4.3445,4.3443,4.3458,4.3445,4.346,4.3465,4.3465,4.3461,4.3419,4.3407,4.3382,4.3435,4.3435,4.3434,0,4.3275,4.3288,4.3284,4.3311,4.3313,4.3312,4.3326,4.3331,4.3347,4.3358,4.3367,4.3386,4.3386,4.3405,4.3406,4.3415,4.3419,4.3427,4.3426,4.3427,4.3448,4.342,4.3374,4.337,4.3429,4.343,4.343,0,4.3229,4.3245,4.3246,4.3253,4.3284,4.3283,4.3295,4.3313,4.3319,4.333,4.3335,4.3345,4.335,4.3357,4.3378,4.339,4.3377,4.3397,4.3386,4.3385,4.3381,4.3381,4.3336,4.3383,4.3383,4.3383,4.3383,0,4.319,4.3186,4.3226,4.3226,4.3224,4.3253,4.3249,4.3264,4.328,4.3283,4.3309,4.3311,4.3339,4.3343,4.336,4.3359,4.336,4.3369,4.3373,4.3367,4.3366,4.3369,4.3372,4.3382,4.3382,4.3382,4.3383,0,4.3137,4.3164,4.3167,4.3197,4.3204,4.3201,4.3226,4.3227,4.3245,4.3249,4.3251,4.3278,4.3286,4.3308,4.332,4.3331,4.3325,4.3333,4.3321,4.3324,4.3311,4.3313,4.3267,4.3262,4.3312,4.3311,4.3311,0,4.3111,4.311,4.3141,4.3147,4.3159,4.3166,4.3174,4.3203,4.3209,4.323,4.3228,4.3239,4.3249,4.3259,4.3279,4.3289,4.3297,4.3281,4.3299,4.3293,4.3298,4.3298,4.3299,4.3276,4.3276,4.3275,4.3275,0,4.3062,4.3076,4.3087,4.3103,4.3113,4.3126,4.314,4.3143,4.3175,4.3181,4.3191,4.3199,4.3214,4.3223,4.3237,4.3248,4.3267,4.3269,4.3268,4.3261,4.3254,4.3259,4.331,4.327,4.327,4.3271,4.3271,4.3271,4.3022,4.3024,4.3047,4.3059,4.3074,4.3088,4.3092,4.3111,4.3121,4.3137,4.3153,4.3161,4.3179,4.32,4.321,4.3217,4.3226,4.3223,4.3222,4.3221,4.3219,4.3253,4.3219,4.3219,4.3219,4.322,4.322,0,4.2976,4.2993,4.3004,4.3026,4.3035,4.3055,4.3073,4.3079,4.3087,4.3104,4.3115,4.3127,4.3137,4.3159,4.3171,4.3172,4.3181,4.3175,4.3175,4.3177,4.3209,4.321,4.3167,4.3167,4.3167,4.3167,4.3167,4.3167,4.2952,4.2957,4.2974,4.2986,4.3003,4.3013,4.3022,4.3035,4.3049,4.3062,4.3073,4.3088,4.3107,4.3121,4.3132,4.3138,4.3141,4.3132,4.3141,4.317,4.3175,4.3179,4.3181,4.3133,4.3132,4.3109,4.3109,4.3108]}]]